Year,Month,Day,Hour,Minute,Value (Times are PST for temperature in C)
2014,08,08,00,00,18.70
2014,08,08,00,01,18.70
2014,08,08,00,02,18.70
2014,08,08,00,03,18.70
2014,08,08,00,04,18.70
2014,08,08,00,05,18.70
2014,08,08,00,06,18.70
2014,08,08,00,07,18.70
2014,08,08,00,08,18.70
2014,08,08,00,09,18.70
2014,08,08,00,10,18.70
2014,08,08,00,11,18.60
2014,08,08,00,12,18.60
2014,08,08,00,13,18.60
2014,08,08,00,14,18.60
2014,08,08,00,15,18.60
2014,08,08,00,16,18.60
2014,08,08,00,17,18.60
2014,08,08,00,18,18.50
2014,08,08,00,19,18.50
2014,08,08,00,20,18.50
2014,08,08,00,21,18.50
2014,08,08,00,22,18.50
2014,08,08,00,23,18.40
2014,08,08,00,24,18.40
2014,08,08,00,25,18.40
2014,08,08,00,26,18.40
2014,08,08,00,27,18.40
2014,08,08,00,28,18.40
2014,08,08,00,29,18.30
2014,08,08,00,30,18.30
2014,08,08,00,31,18.30
2014,08,08,00,32,18.30
2014,08,08,00,33,18.30
2014,08,08,00,34,18.30
2014,08,08,00,35,18.30
2014,08,08,00,36,18.30
2014,08,08,00,37,18.20
2014,08,08,00,38,18.20
2014,08,08,00,39,18.20
2014,08,08,00,40,18.10
2014,08,08,00,41,18.10
2014,08,08,00,42,18.10
2014,08,08,00,43,18.00
2014,08,08,00,44,17.90
2014,08,08,00,45,17.90
2014,08,08,00,46,17.80
2014,08,08,00,47,17.80
2014,08,08,00,48,17.70
2014,08,08,00,49,17.60
2014,08,08,00,50,17.60
2014,08,08,00,51,17.50
2014,08,08,00,52,17.50
2014,08,08,00,53,17.40
2014,08,08,00,54,17.40
2014,08,08,00,55,17.30
2014,08,08,00,56,17.30
2014,08,08,00,57,17.30
2014,08,08,00,58,17.30
2014,08,08,00,59,17.20
2014,08,08,01,00,17.20
2014,08,08,01,01,17.20
2014,08,08,01,02,17.20
2014,08,08,01,03,17.20
2014,08,08,01,04,17.10
2014,08,08,01,05,17.10
2014,08,08,01,06,17.10
2014,08,08,01,07,17.10
2014,08,08,01,08,17.10
2014,08,08,01,09,17.00
2014,08,08,01,10,17.00
2014,08,08,01,11,17.00
2014,08,08,01,12,16.90
2014,08,08,01,13,16.90
2014,08,08,01,14,16.90
2014,08,08,01,15,16.90
2014,08,08,01,16,16.90
2014,08,08,01,17,16.90
2014,08,08,01,18,16.80
2014,08,08,01,19,16.80
2014,08,08,01,20,16.80
2014,08,08,01,21,16.80
2014,08,08,01,22,16.80
2014,08,08,01,23,16.80
2014,08,08,01,24,16.80
2014,08,08,01,25,16.80
2014,08,08,01,26,16.70
2014,08,08,01,27,16.70
2014,08,08,01,28,16.70
2014,08,08,01,29,16.70
2014,08,08,01,30,16.60
2014,08,08,01,31,16.60
2014,08,08,01,32,16.60
2014,08,08,01,33,16.60
2014,08,08,01,34,16.50
2014,08,08,01,35,16.50
2014,08,08,01,36,16.50
2014,08,08,01,37,16.50
2014,08,08,01,38,16.50
2014,08,08,01,39,16.40
2014,08,08,01,40,16.40
2014,08,08,01,41,16.40
2014,08,08,01,42,16.40
2014,08,08,01,43,16.40
2014,08,08,01,44,16.30
2014,08,08,01,45,16.30
2014,08,08,01,46,16.30
2014,08,08,01,47,16.30
2014,08,08,01,48,16.20
2014,08,08,01,49,16.20
2014,08,08,01,50,16.20
2014,08,08,01,51,16.10
2014,08,08,01,52,16.10
2014,08,08,01,53,16.10
2014,08,08,01,54,16.10
2014,08,08,01,55,16.00
2014,08,08,01,56,16.00
2014,08,08,01,57,15.90
2014,08,08,01,58,15.90
2014,08,08,01,59,15.90
2014,08,08,02,00,15.80
2014,08,08,02,01,15.80
2014,08,08,02,02,15.80
2014,08,08,02,03,15.80
2014,08,08,02,04,15.70
2014,08,08,02,05,15.70
2014,08,08,02,06,15.70
2014,08,08,02,07,15.70
2014,08,08,02,08,15.70
2014,08,08,02,09,15.70
2014,08,08,02,10,15.70
2014,08,08,02,11,15.60
2014,08,08,02,12,15.60
2014,08,08,02,13,15.60
2014,08,08,02,14,15.60
2014,08,08,02,15,15.60
2014,08,08,02,16,15.50
2014,08,08,02,17,15.50
2014,08,08,02,18,15.50
2014,08,08,02,19,15.40
2014,08,08,02,20,15.40
2014,08,08,02,21,15.40
2014,08,08,02,22,15.40
2014,08,08,02,23,15.40
2014,08,08,02,24,15.30
2014,08,08,02,25,15.30
2014,08,08,02,26,15.30
2014,08,08,02,27,15.30
2014,08,08,02,28,15.30
2014,08,08,02,29,15.30
2014,08,08,02,30,15.20
2014,08,08,02,31,15.20
2014,08,08,02,32,15.20
2014,08,08,02,33,15.20
2014,08,08,02,34,15.20
2014,08,08,02,35,15.20
2014,08,08,02,36,15.20
2014,08,08,02,37,15.20
2014,08,08,02,38,15.20
2014,08,08,02,39,15.20
2014,08,08,02,40,15.20
2014,08,08,02,41,15.20
2014,08,08,02,42,15.20
2014,08,08,02,43,15.20
2014,08,08,02,44,15.20
2014,08,08,02,45,15.20
2014,08,08,02,46,15.20
2014,08,08,02,47,15.20
2014,08,08,02,48,15.20
2014,08,08,02,49,15.20
2014,08,08,02,50,15.10
2014,08,08,02,51,15.10
2014,08,08,02,52,15.10
2014,08,08,02,53,15.10
2014,08,08,02,54,15.10
2014,08,08,02,55,15.10
2014,08,08,02,56,15.10
2014,08,08,02,57,15.00
2014,08,08,02,58,15.00
2014,08,08,02,59,15.00
2014,08,08,03,00,15.00
2014,08,08,03,01,15.00
2014,08,08,03,02,15.00
2014,08,08,03,03,14.90
2014,08,08,03,04,14.90
2014,08,08,03,05,14.90
2014,08,08,03,06,14.90
2014,08,08,03,07,14.90
2014,08,08,03,08,14.90
2014,08,08,03,09,14.90
2014,08,08,03,10,14.90
2014,08,08,03,11,14.90
2014,08,08,03,12,14.90
2014,08,08,03,13,14.90
2014,08,08,03,14,14.80
2014,08,08,03,15,14.80
2014,08,08,03,16,14.80
2014,08,08,03,17,14.80
2014,08,08,03,18,14.80
2014,08,08,03,19,14.80
2014,08,08,03,20,14.80
2014,08,08,03,21,14.80
2014,08,08,03,22,14.80
2014,08,08,03,23,14.80
2014,08,08,03,24,14.80
2014,08,08,03,25,14.80
2014,08,08,03,26,14.70
2014,08,08,03,27,14.70
2014,08,08,03,28,14.70
2014,08,08,03,29,14.70
2014,08,08,03,30,14.70
2014,08,08,03,31,14.70
2014,08,08,03,32,14.70
2014,08,08,03,33,14.70
2014,08,08,03,34,14.70
2014,08,08,03,35,14.70
2014,08,08,03,36,14.70
2014,08,08,03,37,14.60
2014,08,08,03,38,14.60
2014,08,08,03,39,14.60
2014,08,08,03,40,14.60
2014,08,08,03,41,14.60
2014,08,08,03,42,14.60
2014,08,08,03,43,14.50
2014,08,08,03,44,14.50
2014,08,08,03,45,14.50
2014,08,08,03,46,14.50
2014,08,08,03,47,14.40
2014,08,08,03,48,14.40
2014,08,08,03,49,14.40
2014,08,08,03,50,14.40
2014,08,08,03,51,14.40
2014,08,08,03,52,14.30
2014,08,08,03,53,14.30
2014,08,08,03,54,14.30
2014,08,08,03,55,14.30
2014,08,08,03,56,14.30
2014,08,08,03,57,14.30
2014,08,08,03,58,14.20
2014,08,08,03,59,14.20
2014,08,08,04,00,14.20
2014,08,08,04,01,14.20
2014,08,08,04,02,14.20
2014,08,08,04,03,14.10
2014,08,08,04,04,14.10
2014,08,08,04,05,14.10
2014,08,08,04,06,14.10
2014,08,08,04,07,14.10
2014,08,08,04,08,14.10
2014,08,08,04,09,14.10
2014,08,08,04,10,14.00
2014,08,08,04,11,14.00
2014,08,08,04,12,14.00
2014,08,08,04,13,14.00
2014,08,08,04,14,13.90
2014,08,08,04,15,13.90
2014,08,08,04,16,13.90
2014,08,08,04,17,13.90
2014,08,08,04,18,13.90
2014,08,08,04,19,13.90
2014,08,08,04,20,13.90
2014,08,08,04,21,13.90
2014,08,08,04,22,13.80
2014,08,08,04,23,13.80
2014,08,08,04,24,13.80
2014,08,08,04,25,13.80
2014,08,08,04,26,13.80
2014,08,08,04,27,13.80
2014,08,08,04,28,13.80
2014,08,08,04,29,13.80
2014,08,08,04,30,13.70
2014,08,08,04,31,13.70
2014,08,08,04,32,13.70
2014,08,08,04,33,13.70
2014,08,08,04,34,13.70
2014,08,08,04,35,13.70
2014,08,08,04,36,13.70
2014,08,08,04,37,13.70
2014,08,08,04,38,13.70
2014,08,08,04,39,13.70
2014,08,08,04,40,13.70
2014,08,08,04,41,13.70
2014,08,08,04,42,13.60
2014,08,08,04,43,13.60
2014,08,08,04,44,13.60
2014,08,08,04,45,13.60
2014,08,08,04,46,13.60
2014,08,08,04,47,13.60
2014,08,08,04,48,13.60
2014,08,08,04,49,13.50
2014,08,08,04,50,13.50
2014,08,08,04,51,13.50
2014,08,08,04,52,13.50
2014,08,08,04,53,13.50
2014,08,08,04,54,13.50
2014,08,08,04,55,13.40
2014,08,08,04,56,13.40
2014,08,08,04,57,13.40
2014,08,08,04,58,13.40
2014,08,08,04,59,13.40
2014,08,08,05,00,13.40
2014,08,08,05,01,13.40
2014,08,08,05,02,13.40
2014,08,08,05,03,13.40
2014,08,08,05,04,13.40
2014,08,08,05,05,13.40
2014,08,08,05,06,13.40
2014,08,08,05,07,13.40
2014,08,08,05,08,13.40
2014,08,08,05,09,13.40
2014,08,08,05,10,13.40
2014,08,08,05,11,13.40
2014,08,08,05,12,13.40
2014,08,08,05,13,13.40
2014,08,08,05,14,13.50
2014,08,08,05,15,13.50
2014,08,08,05,16,13.50
2014,08,08,05,17,13.50
2014,08,08,05,18,13.50
2014,08,08,05,19,13.50
2014,08,08,05,20,13.50
2014,08,08,05,21,13.50
2014,08,08,05,22,13.50
2014,08,08,05,23,13.50
2014,08,08,05,24,13.60
2014,08,08,05,25,13.60
2014,08,08,05,26,13.60
2014,08,08,05,27,13.60
2014,08,08,05,28,13.60
2014,08,08,05,29,13.70
2014,08,08,05,30,13.70
2014,08,08,05,31,13.70
2014,08,08,05,32,13.70
2014,08,08,05,33,13.70
2014,08,08,05,34,13.80
2014,08,08,05,35,13.80
2014,08,08,05,36,13.80
2014,08,08,05,37,13.80
2014,08,08,05,38,13.80
2014,08,08,05,39,13.80
2014,08,08,05,40,13.90
2014,08,08,05,41,13.90
2014,08,08,05,42,13.90
2014,08,08,05,43,13.90
2014,08,08,05,44,13.90
2014,08,08,05,45,13.90
2014,08,08,05,46,13.90
2014,08,08,05,47,14.00
2014,08,08,05,48,14.00
2014,08,08,05,49,14.00
2014,08,08,05,50,14.00
2014,08,08,05,51,14.00
2014,08,08,05,52,14.00
2014,08,08,05,53,14.00
2014,08,08,05,54,14.00
2014,08,08,05,55,14.10
2014,08,08,05,56,14.10
2014,08,08,05,57,14.10
2014,08,08,05,58,14.10
2014,08,08,05,59,14.10
2014,08,08,06,00,14.10
2014,08,08,06,01,14.20
2014,08,08,06,02,14.20
2014,08,08,06,03,14.20
2014,08,08,06,04,14.20
2014,08,08,06,05,14.20
2014,08,08,06,06,14.20
2014,08,08,06,07,14.20
2014,08,08,06,08,14.30
2014,08,08,06,09,14.30
2014,08,08,06,10,14.30
2014,08,08,06,11,14.30
2014,08,08,06,12,14.30
2014,08,08,06,13,14.40
2014,08,08,06,14,14.40
2014,08,08,06,15,14.40
2014,08,08,06,16,14.40
2014,08,08,06,17,14.40
2014,08,08,06,18,14.40
2014,08,08,06,19,14.40
2014,08,08,06,20,14.50
2014,08,08,06,21,14.50
2014,08,08,06,22,14.50
2014,08,08,06,23,14.50
2014,08,08,06,24,14.60
2014,08,08,06,25,14.60
2014,08,08,06,26,14.60
2014,08,08,06,27,14.70
2014,08,08,06,28,14.70
2014,08,08,06,29,14.80
2014,08,08,06,30,14.80
2014,08,08,06,31,14.80
2014,08,08,06,32,14.90
2014,08,08,06,33,14.90
2014,08,08,06,34,15.00
2014,08,08,06,35,15.00
2014,08,08,06,36,15.10
2014,08,08,06,37,15.10
2014,08,08,06,38,15.10
2014,08,08,06,39,15.10
2014,08,08,06,40,15.10
2014,08,08,06,41,15.10
2014,08,08,06,42,15.10
2014,08,08,06,43,15.10
2014,08,08,06,44,15.20
2014,08,08,06,45,15.20
2014,08,08,06,46,15.20
2014,08,08,06,47,15.20
2014,08,08,06,48,15.20
2014,08,08,06,49,15.20
2014,08,08,06,50,15.20
2014,08,08,06,51,15.20
2014,08,08,06,52,15.30
2014,08,08,06,53,15.30
2014,08,08,06,54,15.30
2014,08,08,06,55,15.30
2014,08,08,06,56,15.30
2014,08,08,06,57,15.30
2014,08,08,06,58,15.30
2014,08,08,06,59,15.30
2014,08,08,07,00,15.30
2014,08,08,07,01,15.30
2014,08,08,07,02,15.30
2014,08,08,07,03,15.30
2014,08,08,07,04,15.30
2014,08,08,07,05,15.30
2014,08,08,07,06,15.30
2014,08,08,07,07,15.30
2014,08,08,07,08,15.30
2014,08,08,07,09,15.30
2014,08,08,07,10,15.30
2014,08,08,07,11,15.30
2014,08,08,07,12,15.30
2014,08,08,07,13,15.30
2014,08,08,07,14,15.30
2014,08,08,07,15,15.30
2014,08,08,07,16,15.30
2014,08,08,07,17,15.30
2014,08,08,07,18,15.30
2014,08,08,07,19,15.30
2014,08,08,07,20,15.30
2014,08,08,07,21,15.30
2014,08,08,07,22,15.30
2014,08,08,07,23,15.30
2014,08,08,07,24,15.20
2014,08,08,07,25,15.20
2014,08,08,07,26,15.20
2014,08,08,07,27,15.20
2014,08,08,07,28,15.20
2014,08,08,07,29,15.20
2014,08,08,07,30,15.20
2014,08,08,07,31,15.20
2014,08,08,07,32,15.20
2014,08,08,07,33,15.20
2014,08,08,07,34,15.20
2014,08,08,07,35,15.20
2014,08,08,07,36,15.20
2014,08,08,07,37,15.20
2014,08,08,07,38,15.20
2014,08,08,07,39,15.20
2014,08,08,07,40,15.20
2014,08,08,07,41,15.20
2014,08,08,07,42,15.20
2014,08,08,07,43,15.30
2014,08,08,07,44,15.30
2014,08,08,07,45,15.30
2014,08,08,07,46,15.30
2014,08,08,07,47,15.30
2014,08,08,07,48,15.30
2014,08,08,07,49,15.40
2014,08,08,07,50,15.40
2014,08,08,07,51,15.40
2014,08,08,07,52,15.40
2014,08,08,07,53,15.40
2014,08,08,07,54,15.40
2014,08,08,07,55,15.50
2014,08,08,07,56,15.50
2014,08,08,07,57,15.50
2014,08,08,07,58,15.50
2014,08,08,07,59,15.60
2014,08,08,08,00,15.60
2014,08,08,08,01,15.60
2014,08,08,08,02,15.60
2014,08,08,08,03,15.70
2014,08,08,08,04,15.70
2014,08,08,08,05,15.70
2014,08,08,08,06,15.70
2014,08,08,08,07,15.80
2014,08,08,08,08,15.80
2014,08,08,08,09,15.80
2014,08,08,08,10,15.90
2014,08,08,08,11,15.90
2014,08,08,08,12,15.90
2014,08,08,08,13,16.00
2014,08,08,08,14,16.00
2014,08,08,08,15,16.10
2014,08,08,08,16,16.10
2014,08,08,08,17,16.10
2014,08,08,08,18,16.10
2014,08,08,08,19,16.20
2014,08,08,08,20,16.20
2014,08,08,08,21,16.30
2014,08,08,08,22,16.30
2014,08,08,08,23,16.40
2014,08,08,08,24,16.40
2014,08,08,08,25,16.40
2014,08,08,08,26,16.40
2014,08,08,08,27,16.50
2014,08,08,08,28,16.50
2014,08,08,08,29,16.50
2014,08,08,08,30,16.60
2014,08,08,08,31,16.60
2014,08,08,08,32,16.60
2014,08,08,08,33,16.70
2014,08,08,08,34,16.70
2014,08,08,08,35,16.80
2014,08,08,08,36,16.80
2014,08,08,08,37,16.90
2014,08,08,08,38,16.90
2014,08,08,08,39,16.90
2014,08,08,08,40,16.90
2014,08,08,08,41,17.00
2014,08,08,08,42,17.00
2014,08,08,08,43,17.10
2014,08,08,08,44,17.20
2014,08,08,08,45,17.20
2014,08,08,08,46,17.30
2014,08,08,08,47,17.30
2014,08,08,08,48,17.30
2014,08,08,08,49,17.40
2014,08,08,08,50,17.50
2014,08,08,08,51,17.50
2014,08,08,08,52,17.60
2014,08,08,08,53,17.70
2014,08,08,08,54,17.70
2014,08,08,08,55,17.80
2014,08,08,08,56,17.80
2014,08,08,08,57,17.80
2014,08,08,08,58,17.90
2014,08,08,08,59,18.00
2014,08,08,09,00,18.00
2014,08,08,09,01,18.10
2014,08,08,09,02,18.20
2014,08,08,09,03,18.20
2014,08,08,09,04,18.20
2014,08,08,09,05,18.20
2014,08,08,09,06,18.20
2014,08,08,09,07,18.20
2014,08,08,09,08,18.20
2014,08,08,09,09,18.30
2014,08,08,09,10,18.30
2014,08,08,09,11,18.30
2014,08,08,09,12,18.40
2014,08,08,09,13,18.40
2014,08,08,09,14,18.40
2014,08,08,09,15,18.40
2014,08,08,09,16,18.40
2014,08,08,09,17,18.40
2014,08,08,09,18,18.40
2014,08,08,09,19,18.40
2014,08,08,09,20,18.30
2014,08,08,09,21,18.30
2014,08,08,09,22,18.30
2014,08,08,09,23,18.30
2014,08,08,09,24,18.30
2014,08,08,09,25,18.30
2014,08,08,09,26,18.30
2014,08,08,09,27,18.30
2014,08,08,09,28,18.30
2014,08,08,09,29,18.30
2014,08,08,09,30,18.40
2014,08,08,09,31,18.50
2014,08,08,09,32,18.50
2014,08,08,09,33,18.60
2014,08,08,09,34,18.70
2014,08,08,09,35,18.80
2014,08,08,09,36,18.80
2014,08,08,09,37,18.80
2014,08,08,09,38,18.80
2014,08,08,09,39,18.80
2014,08,08,09,40,18.80
2014,08,08,09,41,18.80
2014,08,08,09,42,18.80
2014,08,08,09,43,18.80
2014,08,08,09,44,18.80
2014,08,08,09,45,18.80
2014,08,08,09,46,18.80
2014,08,08,09,47,18.80
2014,08,08,09,48,18.90
2014,08,08,09,49,18.90
2014,08,08,09,50,18.90
2014,08,08,09,51,18.90
2014,08,08,09,52,18.90
2014,08,08,09,53,18.90
2014,08,08,09,54,18.80
2014,08,08,09,55,18.80
2014,08,08,09,56,18.80
2014,08,08,09,57,18.70
2014,08,08,09,58,18.70
2014,08,08,09,59,18.70
2014,08,08,10,00,18.70
2014,08,08,10,01,18.70
2014,08,08,10,02,18.70
2014,08,08,10,03,18.80
2014,08,08,10,04,18.80
2014,08,08,10,05,18.80
2014,08,08,10,06,18.80
2014,08,08,10,07,18.90
2014,08,08,10,08,18.90
2014,08,08,10,09,19.00
2014,08,08,10,10,19.00
2014,08,08,10,11,19.10
2014,08,08,10,12,19.10
2014,08,08,10,13,19.10
2014,08,08,10,14,19.10
2014,08,08,10,15,19.10
2014,08,08,10,16,19.10
2014,08,08,10,17,19.10
2014,08,08,10,18,19.20
2014,08,08,10,19,19.20
2014,08,08,10,20,19.20
2014,08,08,10,21,19.20
2014,08,08,10,22,19.20
2014,08,08,10,23,19.30
2014,08,08,10,24,19.30
2014,08,08,10,25,19.40
2014,08,08,10,26,19.40
2014,08,08,10,27,19.40
2014,08,08,10,28,19.50
2014,08,08,10,29,19.50
2014,08,08,10,30,19.50
2014,08,08,10,31,19.60
2014,08,08,10,32,19.60
2014,08,08,10,33,19.60
2014,08,08,10,34,19.70
2014,08,08,10,35,19.70
2014,08,08,10,36,19.80
2014,08,08,10,37,19.90
2014,08,08,10,38,20.00
2014,08,08,10,39,20.10
2014,08,08,10,40,20.10
2014,08,08,10,41,20.20
2014,08,08,10,42,20.20
2014,08,08,10,43,20.20
2014,08,08,10,44,20.20
2014,08,08,10,45,20.30
2014,08,08,10,46,20.30
2014,08,08,10,47,20.30
2014,08,08,10,48,20.30
2014,08,08,10,49,20.30
2014,08,08,10,50,20.40
2014,08,08,10,51,20.40
2014,08,08,10,52,20.40
2014,08,08,10,53,20.50
2014,08,08,10,54,20.50
2014,08,08,10,55,20.50
2014,08,08,10,56,20.60
2014,08,08,10,57,20.60
2014,08,08,10,58,20.70
2014,08,08,10,59,20.70
2014,08,08,11,00,20.70
2014,08,08,11,01,20.80
2014,08,08,11,02,20.80
2014,08,08,11,03,20.90
2014,08,08,11,04,21.00
2014,08,08,11,05,21.10
2014,08,08,11,06,21.20
2014,08,08,11,07,21.20
2014,08,08,11,08,21.20
2014,08,08,11,09,21.20
2014,08,08,11,10,21.30
2014,08,08,11,11,21.30
2014,08,08,11,12,21.40
2014,08,08,11,13,21.50
2014,08,08,11,14,21.50
2014,08,08,11,15,21.50
2014,08,08,11,16,21.50
2014,08,08,11,17,21.50
2014,08,08,11,18,21.50
2014,08,08,11,19,21.60
2014,08,08,11,20,21.60
2014,08,08,11,21,21.60
2014,08,08,11,22,21.60
2014,08,08,11,23,21.60
2014,08,08,11,24,21.60
2014,08,08,11,25,21.60
2014,08,08,11,26,21.60
2014,08,08,11,27,21.60
2014,08,08,11,28,21.60
2014,08,08,11,29,21.60
2014,08,08,11,30,21.70
2014,08,08,11,31,21.70
2014,08,08,11,32,21.70
2014,08,08,11,33,21.70
2014,08,08,11,34,21.70
2014,08,08,11,35,21.70
2014,08,08,11,36,21.70
2014,08,08,11,37,21.80
2014,08,08,11,38,21.80
2014,08,08,11,39,21.70
2014,08,08,11,40,21.70
2014,08,08,11,41,21.70
2014,08,08,11,42,21.70
2014,08,08,11,43,21.70
2014,08,08,11,44,21.70
2014,08,08,11,45,21.60
2014,08,08,11,46,21.50
2014,08,08,11,47,21.40
2014,08,08,11,48,21.30
2014,08,08,11,49,21.30
2014,08,08,11,50,21.20
2014,08,08,11,51,21.10
2014,08,08,11,52,21.10
2014,08,08,11,53,21.00
2014,08,08,11,54,20.90
2014,08,08,11,55,20.80
2014,08,08,11,56,20.80
2014,08,08,11,57,20.70
2014,08,08,11,58,20.70
2014,08,08,11,59,20.70
2014,08,08,12,00,20.70
2014,08,08,12,01,20.70
2014,08,08,12,02,20.70
2014,08,08,12,03,20.80
2014,08,08,12,04,20.80
2014,08,08,12,05,20.80
2014,08,08,12,06,20.80
2014,08,08,12,07,20.80
2014,08,08,12,08,20.80
2014,08,08,12,09,20.80
2014,08,08,12,10,20.70
2014,08,08,12,11,20.70
2014,08,08,12,12,20.60
2014,08,08,12,13,20.60
2014,08,08,12,14,20.60
2014,08,08,12,15,20.70
2014,08,08,12,16,20.70
2014,08,08,12,17,20.70
2014,08,08,12,18,20.70
2014,08,08,12,19,20.70
2014,08,08,12,20,20.70
2014,08,08,12,21,20.60
2014,08,08,12,22,20.60
2014,08,08,12,23,20.60
2014,08,08,12,24,20.70
2014,08,08,12,25,20.90
2014,08,08,12,26,21.00
2014,08,08,12,27,21.10
2014,08,08,12,28,21.10
2014,08,08,12,29,21.20
2014,08,08,12,30,21.20
2014,08,08,12,31,21.20
2014,08,08,12,32,21.20
2014,08,08,12,33,21.20
2014,08,08,12,34,21.30
2014,08,08,12,35,21.30
2014,08,08,12,36,21.30
2014,08,08,12,37,21.40
2014,08,08,12,38,21.40
2014,08,08,12,39,21.30
2014,08,08,12,40,21.20
2014,08,08,12,41,21.10
2014,08,08,12,42,21.10
2014,08,08,12,43,21.00
2014,08,08,12,44,20.90
2014,08,08,12,45,20.90
2014,08,08,12,46,21.00
2014,08,08,12,47,21.00
2014,08,08,12,48,21.10
2014,08,08,12,49,21.20
2014,08,08,12,50,21.10
2014,08,08,12,51,21.10
2014,08,08,12,52,21.10
2014,08,08,12,53,21.10
2014,08,08,12,54,21.10
2014,08,08,12,55,21.00
2014,08,08,12,56,21.00
2014,08,08,12,57,21.00
2014,08,08,12,58,21.00
2014,08,08,12,59,21.10
2014,08,08,13,00,21.20
2014,08,08,13,01,21.30
2014,08,08,13,02,21.40
2014,08,08,13,03,21.50
2014,08,08,13,04,21.60
2014,08,08,13,05,21.60
2014,08,08,13,06,21.70
2014,08,08,13,07,21.80
2014,08,08,13,08,21.80
2014,08,08,13,09,21.80
2014,08,08,13,10,21.90
2014,08,08,13,11,22.00
2014,08,08,13,12,22.10
2014,08,08,13,13,22.10
2014,08,08,13,14,22.10
2014,08,08,13,15,22.10
2014,08,08,13,16,22.10
2014,08,08,13,17,22.00
2014,08,08,13,18,21.90
2014,08,08,13,19,22.00
2014,08,08,13,20,22.00
2014,08,08,13,21,22.10
2014,08,08,13,22,22.20
2014,08,08,13,23,22.20
2014,08,08,13,24,22.20
2014,08,08,13,25,22.30
2014,08,08,13,26,22.30
2014,08,08,13,27,22.20
2014,08,08,13,28,22.20
2014,08,08,13,29,22.10
2014,08,08,13,30,22.00
2014,08,08,13,31,21.90
2014,08,08,13,32,21.80
2014,08,08,13,33,21.80
2014,08,08,13,34,21.70
2014,08,08,13,35,21.70
2014,08,08,13,36,21.60
2014,08,08,13,37,21.60
2014,08,08,13,38,21.60
2014,08,08,13,39,21.60
2014,08,08,13,40,21.70
2014,08,08,13,41,21.80
2014,08,08,13,42,21.80
2014,08,08,13,43,21.80
2014,08,08,13,44,21.80
2014,08,08,13,45,21.80
2014,08,08,13,46,21.70
2014,08,08,13,47,21.80
2014,08,08,13,48,21.90
2014,08,08,13,49,22.00
2014,08,08,13,50,22.10
2014,08,08,13,51,22.10
2014,08,08,13,52,22.10
2014,08,08,13,53,22.10
2014,08,08,13,54,22.00
2014,08,08,13,55,21.90
2014,08,08,13,56,21.90
2014,08,08,13,57,21.80
2014,08,08,13,58,21.70
2014,08,08,13,59,21.60
2014,08,08,14,00,21.60
2014,08,08,14,01,21.50
2014,08,08,14,02,21.50
2014,08,08,14,03,21.40
2014,08,08,14,04,21.50
2014,08,08,14,05,21.50
2014,08,08,14,06,21.60
2014,08,08,14,07,21.70
2014,08,08,14,08,21.70
2014,08,08,14,09,21.80
2014,08,08,14,10,21.90
2014,08,08,14,11,22.00
2014,08,08,14,12,22.00
2014,08,08,14,13,22.00
2014,08,08,14,14,22.00
2014,08,08,14,15,21.90
2014,08,08,14,16,21.80
2014,08,08,14,17,21.80
2014,08,08,14,18,21.70
2014,08,08,14,19,21.70
2014,08,08,14,20,21.80
2014,08,08,14,21,21.80
2014,08,08,14,22,21.80
2014,08,08,14,23,21.80
2014,08,08,14,24,21.70
2014,08,08,14,25,21.70
2014,08,08,14,26,21.80
2014,08,08,14,27,21.80
2014,08,08,14,28,21.80
2014,08,08,14,29,21.90
2014,08,08,14,30,21.90
2014,08,08,14,31,21.80
2014,08,08,14,32,21.80
2014,08,08,14,33,21.80
2014,08,08,14,34,21.70
2014,08,08,14,35,21.70
2014,08,08,14,36,21.70
2014,08,08,14,37,21.70
2014,08,08,14,38,21.70
2014,08,08,14,39,21.80
2014,08,08,14,40,21.80
2014,08,08,14,41,21.80
2014,08,08,14,42,21.80
2014,08,08,14,43,21.80
2014,08,08,14,44,21.90
2014,08,08,14,45,21.90
2014,08,08,14,46,21.90
2014,08,08,14,47,22.00
2014,08,08,14,48,22.00
2014,08,08,14,49,22.10
2014,08,08,14,50,22.20
2014,08,08,14,51,22.30
2014,08,08,14,52,22.50
2014,08,08,14,53,22.60
2014,08,08,14,54,22.80
2014,08,08,14,55,22.90
2014,08,08,14,56,23.00
2014,08,08,14,57,23.10
2014,08,08,14,58,23.20
2014,08,08,14,59,23.30
2014,08,08,15,00,23.30
2014,08,08,15,01,23.30
2014,08,08,15,02,23.30
2014,08,08,15,03,23.30
2014,08,08,15,04,23.30
2014,08,08,15,05,23.30
2014,08,08,15,06,23.40
2014,08,08,15,07,23.50
2014,08,08,15,08,23.60
2014,08,08,15,09,23.60
2014,08,08,15,10,23.70
2014,08,08,15,11,23.80
2014,08,08,15,12,23.80
2014,08,08,15,13,23.90
2014,08,08,15,14,23.90
2014,08,08,15,15,23.90
2014,08,08,15,16,23.90
2014,08,08,15,17,23.90
2014,08,08,15,18,23.90
2014,08,08,15,19,24.00
2014,08,08,15,20,24.00
2014,08,08,15,21,23.90
2014,08,08,15,22,23.90
2014,08,08,15,23,23.80
2014,08,08,15,24,23.80
2014,08,08,15,25,23.80
2014,08,08,15,26,23.80
2014,08,08,15,27,23.70
2014,08,08,15,28,23.70
2014,08,08,15,29,23.60
2014,08,08,15,30,23.60
2014,08,08,15,31,23.60
2014,08,08,15,32,23.60
2014,08,08,15,33,23.60
2014,08,08,15,34,23.60
2014,08,08,15,35,23.60
2014,08,08,15,36,23.70
2014,08,08,15,37,23.80
2014,08,08,15,38,23.80
2014,08,08,15,39,23.80
2014,08,08,15,40,23.80
2014,08,08,15,41,23.90
2014,08,08,15,42,24.00
2014,08,08,15,43,24.10
2014,08,08,15,44,24.10
2014,08,08,15,45,24.10
2014,08,08,15,46,24.10
2014,08,08,15,47,24.10
2014,08,08,15,48,24.10
2014,08,08,15,49,24.10
2014,08,08,15,50,24.20
2014,08,08,15,51,24.20
2014,08,08,15,52,24.20
2014,08,08,15,53,24.20
2014,08,08,15,54,24.20
2014,08,08,15,55,24.10
2014,08,08,15,56,24.00
2014,08,08,15,57,23.90
2014,08,08,15,58,23.90
2014,08,08,15,59,23.80
2014,08,08,16,00,23.80
2014,08,08,16,01,23.70
2014,08,08,16,02,23.70
2014,08,08,16,03,23.70
2014,08,08,16,04,23.70
2014,08,08,16,05,23.70
2014,08,08,16,06,23.70
2014,08,08,16,07,23.60
2014,08,08,16,08,23.60
2014,08,08,16,09,23.50
2014,08,08,16,10,23.40
2014,08,08,16,11,23.40
2014,08,08,16,12,23.40
2014,08,08,16,13,23.40
2014,08,08,16,14,23.50
2014,08,08,16,15,23.60
2014,08,08,16,16,23.70
2014,08,08,16,17,23.90
2014,08,08,16,18,24.00
2014,08,08,16,19,24.10
2014,08,08,16,20,24.20
2014,08,08,16,21,24.20
2014,08,08,16,22,24.20
2014,08,08,16,23,24.30
2014,08,08,16,24,24.30
2014,08,08,16,25,24.30
2014,08,08,16,26,24.20
2014,08,08,16,27,24.20
2014,08,08,16,28,24.10
2014,08,08,16,29,24.10
2014,08,08,16,30,24.00
2014,08,08,16,31,23.90
2014,08,08,16,32,23.80
2014,08,08,16,33,23.80
2014,08,08,16,34,23.80
2014,08,08,16,35,23.80
2014,08,08,16,36,23.80
2014,08,08,16,37,23.90
2014,08,08,16,38,23.80
2014,08,08,16,39,23.80
2014,08,08,16,40,23.80
2014,08,08,16,41,23.80
2014,08,08,16,42,23.80
2014,08,08,16,43,23.90
2014,08,08,16,44,23.90
2014,08,08,16,45,24.00
2014,08,08,16,46,24.10
2014,08,08,16,47,24.10
2014,08,08,16,48,24.10
2014,08,08,16,49,24.10
2014,08,08,16,50,24.00
2014,08,08,16,51,23.90
2014,08,08,16,52,23.80
2014,08,08,16,53,23.70
2014,08,08,16,54,23.70
2014,08,08,16,55,23.60
2014,08,08,16,56,23.70
2014,08,08,16,57,23.70
2014,08,08,16,58,23.80
2014,08,08,16,59,23.90
2014,08,08,17,00,23.90
2014,08,08,17,01,23.90
2014,08,08,17,02,23.80
2014,08,08,17,03,23.70
2014,08,08,17,04,23.60
2014,08,08,17,05,23.60
2014,08,08,17,06,23.60
2014,08,08,17,07,23.70
2014,08,08,17,08,23.80
2014,08,08,17,09,23.80
2014,08,08,17,10,23.80
2014,08,08,17,11,23.80
2014,08,08,17,12,23.70
2014,08,08,17,13,23.70
2014,08,08,17,14,23.70
2014,08,08,17,15,23.70
2014,08,08,17,16,23.60
2014,08,08,17,17,23.60
2014,08,08,17,18,23.60
2014,08,08,17,19,23.60